Location: ??
(35.5990°N, 139.7298°E)
Time: 00:55:03
(UTC+00:00)

Daily predictions for brighter satellites

Satellite Brightness Start Highest point End
(mag) Time Altitude Azimuth Time Altitude Azimuth Time Altitude Azimuth
USA 267 3.4 10:12:17 10° SE 10:18:51 82° SW 10:25:27 10° NW
Sakura Rocket 4.3 10:14:40 10° WSW 10:19:15 39° S 10:25:26 10° ESE
Cosmos 1110 Rocket 4.2 10:16:34 10° S 10:21:31 49° ESE 10:26:30 10° NNE
STARLINK-1094 4.0 10:18:47 10° NW 10:22:52 60° SW 10:26:55 10° SSE
NOSS 2-2 (C) 3.3 10:19:32 10° SW 10:23:07 75° WNW 10:26:47 10° NNE
Cosmos 1741 Rocket 4.5 10:18:30 10° N 10:23:31 45° ENE 10:28:31 10° SE
STARLINK-1322 4.5 10:22:06 10° SSE 10:24:06 16° SE 10:26:06 10° E
STARLINK-1324 4.5 10:22:24 10° SSE 10:24:24 16° SE 10:26:26 10° E
STARLINK-1294 4.5 10:22:44 10° SSE 10:24:44 16° SE 10:26:44 10° E
STARLINK-1261 4.5 10:23:03 10° SSE 10:25:06 16° SE 10:27:09 10° E
Meteor 2-9 Rocket 4.4 10:19:50 10° NNW 10:25:08 73° W 10:30:26 10° S
STARLINK-1325 4.5 10:23:23 10° S 10:25:26 17° SE 10:27:30 10° E
STARLINK-1333 4.4 10:23:43 10° S 10:25:48 17° SE 10:27:53 10° E
ISS -2.3 10:23:04 10° WNW 10:26:04 30° SW 10:29:04 10° SSE
STARLINK-1334 4.4 10:24:00 10° S 10:26:05 17° SE 10:28:11 10° E
STARLINK-1326 4.4 10:24:18 10° S 10:26:24 17° SE 10:28:31 10° E
STARLINK-1323 4.4 10:24:41 10° S 10:26:48 17° SE 10:28:56 10° E
STARLINK-1349 4.4 10:24:58 10° S 10:27:06 17° SE 10:29:15 10° E
STARLINK-1336 4.4 10:25:15 10° S 10:27:24 17° SE 10:29:33 10° E
STARLINK-1331 4.4 10:25:38 10° S 10:27:47 18° SE 10:29:57 10° E
STARLINK-1117 4.2 10:23:47 10° NW 10:27:49 53° SW 10:31:50 10° SSE
STARLINK-1344 4.4 10:25:55 10° S 10:28:05 18° SE 10:30:17 10° E
ASTEX 1 3.6 10:23:13 10° S 10:28:07 80° W 10:33:04 10° N
STARLINK-1343 4.4 10:26:17 10° S 10:28:28 18° SE 10:30:40 10° E
STARLINK-1346 4.3 10:26:33 10° S 10:28:44 18° SE 10:30:57 10° E
ATLAS 2AS CENTAUR R/B 3.8 10:22:29 10° SSE 10:28:55 29° ESE 10:35:27 10° NE
STARLINK-1328 4.3 10:26:59 10° S 10:29:12 18° SE 10:31:26 10° E
Aureole 2 Rocket 2.9 10:26:11 10° SSW 10:29:12 54° WNW 10:32:06 10° N
STARLINK-1354 4.3 10:27:14 10° S 10:29:28 18° SE 10:31:42 10° E
Cosmos 1850 Rocket 4.3 10:24:17 10° N 10:29:32 55° ENE 10:34:44 10° SSE
STARLINK-1347 4.3 10:27:30 10° S 10:29:45 18° SE 10:32:00 10° E
STARLINK-1357 4.3 10:27:56 10° S 10:30:12 19° SE 10:32:28 10° E
STARLINK-1335 4.3 10:28:12 10° S 10:30:27 19° SE 10:32:45 10° E
SL-4 R/B 3.0 10:26:14 10° WSW 10:30:44 62° NW 10:35:29 10° NE
STARLINK-1327 4.3 10:28:32 10° S 10:30:49 19° SE 10:33:07 10° E
STARLINK-1340 4.3 10:28:48 10° S 10:31:06 19° SE 10:33:24 10° E
STARLINK-1356 4.3 10:29:10 10° S 10:31:29 19° SE 10:33:48 10° E
ASTRO E2 3.6 10:27:52 10° WSW 10:31:29 34° SSW 10:35:05 10° SE
STARLINK-1345 4.2 10:29:28 10° S 10:31:47 19° SE 10:34:07 10° E
STARLINK-1355 4.2 10:29:49 10° S 10:32:10 20° SE 10:34:30 10° E
STARLINK-1321 4.2 10:30:10 10° S 10:32:31 20° SE 10:34:52 10° ENE
Cosmos 1331 Rocket 4.1 10:27:42 10° S 10:32:43 57° ESE 10:37:47 10° NNE
STARLINK-1078 4.4 10:28:47 10° WNW 10:32:46 47° SW 10:36:44 10° SSE
STARLINK-1358 4.2 10:30:32 10° S 10:32:53 20° SE 10:35:15 10° ENE
STARLINK-1332 4.2 10:30:48 10° S 10:33:11 20° SE 10:35:33 10° ENE
STARLINK-1348 4.2 10:31:08 10° S 10:33:31 20° SE 10:35:55 10° ENE
STARLINK-1330 4.2 10:31:26 10° S 10:33:50 20° SE 10:36:13 10° ENE
STARLINK-1363 4.2 10:31:46 10° S 10:34:10 21° SE 10:36:34 10° ENE
STARLINK-1337 4.1 10:32:08 10° S 10:34:33 21° SE 10:36:58 10° ENE
STARLINK-1342 4.1 10:32:25 10° S 10:34:51 21° SE 10:37:17 10° ENE
STARLINK-1364 4.1 10:32:45 10° S 10:35:11 21° SE 10:37:37 10° ENE
STARLINK-1376 4.1 10:33:04 10° S 10:35:31 21° SE 10:37:58 10° ENE
DMSP B5D2-2 4.1 10:30:26 10° NNE 10:35:41 67° ESE 10:40:53 10° S
STARLINK-1360 4.1 10:33:25 10° S 10:35:51 21° SE 10:38:19 10° ENE
MOS 1 4.3 10:30:19 10° SSE 10:36:01 88° ENE 10:41:44 10° NNW
STARLINK-1361 4.1 10:33:44 10° S 10:36:12 22° SE 10:38:41 10° ENE
STARLINK-1367 4.1 10:34:01 10° S 10:36:29 22° SE 10:38:58 10° ENE
STARLINK-1366 4.1 10:34:20 10° S 10:36:50 22° SE 10:39:20 10° ENE
Cosmos 1437 Rocket 2.6 10:35:06 10° S 10:38:52 74° E 10:42:42 10° NNE
CZ-2C R/B 4.2 10:35:15 10° S 10:40:39 51° W 10:46:17 10° NNW
STARLINK-1106 4.4 10:41:07 10° NNW 10:45:03 41° NE 10:48:35 12° ESE
Milstar 3 Cent rocket 3.8 10:39:30 10° SW 10:45:20 34° SSE 10:55:49 10° E
STARLINK-52 3.5 10:42:45 10° SW 10:45:55 61° NW 10:49:05 10° NE
H-2A ROCKET BODY 3.8 10:42:29 10° S 10:46:22 24° SE 10:56:40 10° E
STARLINK-1112 4.3 10:46:04 10° NW 10:50:04 45° NE 10:53:23 14° ESE
ATLAS 5 CENTAUR R/B 4.5 10:43:08 10° S 10:53:03 24° SE 10:57:09 10° E
STARLINK-1365 4.4 10:49:41 10° S 10:53:10 29° SE 10:56:39 10° ENE
SPOT 3 Rocket 3.5 10:49:22 10° SSE 10:54:28 72° ENE 10:59:37 10° N
STARLINK-1128 4.1 10:51:00 10° NW 10:55:02 50° NE 10:58:09 16° ESE
ATLAS CENTAUR R/B 2.5 10:52:07 10° SSE 10:55:51 25° ESE 10:59:25 10° ENE
SL-08 RB Rocket 4.3 10:51:32 10° S 10:56:01 57° W 11:00:29 10° NNW
Cosmos 2279 Rocket 4.0 10:51:55 10° N 10:58:10 85° E 11:04:22 10° S
Abrixas rocket 1.8 10:56:24 10° NW 10:59:21 82° SW 11:01:03 22° SE
STARLINK-1113 4.0 10:55:58 10° NW 11:00:02 55° NE 11:02:57 18° ESE
H-2A R/B 3.7 10:56:12 10° SSW 11:00:41 31° W 11:05:18 10° NW
STARLINK-1338 4.1 10:58:37 10° SSW 11:02:13 34° SE 11:05:51 10° ENE
Okean 1 Rocket 3.6 10:58:46 10° N 11:02:56 40° E 11:05:42 19° SE
ARGOS 4.4 10:58:34 10° SSW 11:03:33 39° W 11:08:36 10° NNW
STARLINK-1119 3.8 11:00:55 10° NW 11:05:00 61° NE 11:07:43 20° ESE
CZ-2C R/B 3.2 11:01:54 10° N 11:07:28 65° WNW 11:12:57 10° SSW
STARLINK-1371 3.8 11:05:37 10° SSW 11:09:17 40° SE 11:12:59 10° ENE
STARLINK-1114 3.7 11:05:52 10° NW 11:10:00 68° NE 11:12:30 23° ESE
COSMOS 2455 3.9 11:07:25 17° SE 11:10:23 24° ESE 11:15:04 10° NE
Cosmos 1378 3.3 11:08:56 17° SSE 11:11:31 50° E 11:15:07 10° NNE
Cosmos 1943 Rocket 2.2 11:06:39 10° SSW 11:12:11 88° WNW 11:17:48 10° NNE
STARLINK-1341 3.7 11:09:37 10° SSW 11:13:19 44° SE 11:17:03 10° ENE
Lacrosse 5 3.9 11:10:03 10° WNW 11:13:42 20° WSW 11:17:21 10° SSW
STARLINK-1130 (DARKSAT) 3.6 11:10:49 10° NW 11:14:58 76° NE 11:17:16 25° SE
STARLINK-1374 3.6 11:15:42 10° SSW 11:19:34 52° SE 11:23:26 10° NE
STARLINK-1084 3.6 11:15:48 10° NW 11:19:57 84° NE 11:22:04 28° SE
FALCON 9 DEB 4.2 11:17:07 10° WSW 11:20:25 47° NW 11:23:45 10° NE
Cosmos 1900 4.5 11:16:21 10° NNW 11:21:24 66° ENE 11:24:20 25° SE
STARLINK-1339 3.5 11:18:12 10° SSW 11:22:00 54° SE 11:25:49 10° NE
CENTAUR R/B 4.1 11:14:55 10° NNW 11:22:25 38° NE 11:28:34 17° ESE
STARLINK-1098 3.5 11:20:46 10° NW 11:24:55 87° SW 11:26:50 31° SE
SAR-Lupe-2 4.0 11:22:47 10° NNE 11:26:13 41° E 11:27:07 34° SE
OAO 1 4.5 11:20:54 10° W 11:26:26 84° S 11:30:26 19° E
STARLINK-1377 3.4 11:24:27 10° SW 11:28:22 64° SE 11:32:20 10° NE
Resurs 01 Rocket 1.7 11:25:59 19° S 11:29:07 77° WSW 11:33:34 10° NNW
BREEZE-M DEB (TANK) 2.5 11:27:19 10° SW 11:29:40 83° NW 11:35:09 10° NE
STARLINK-1123 3.6 11:25:45 10° NW 11:29:54 79° SW 11:31:38 34° SE
Cosmos 1656 Rocket 4.0 11:26:36 19° SSE 11:30:15 42° ESE 11:35:29 10° NE
USA 245 3.7 11:31:16 25° ENE 11:31:16 25° ENE 11:32:55 10° NNE
STARLINK-1353 3.4 11:28:49 10° SW 11:32:47 72° SE 11:36:46 10° NE
Cosmos 1092 Rocket 4.0 11:29:46 18° S 11:34:22 63° E 11:40:26 10° NNE
Cosmos 1805 3.4 11:30:50 10° N 11:34:41 56° E 11:35:53 38° SE
STARLINK-1097 3.7 11:30:45 10° NW 11:34:52 70° SW 11:36:25 36° SSE
SL-27 R/B 3.4 11:32:02 10° N 11:35:13 31° ENE 11:35:38 30° E
STARLINK-1375 3.4 11:33:15 10° SW 11:37:14 80° SE 11:41:14 10° NE
GPS 2-04 Rocket1 4.1 11:36:09 10° WSW 11:38:41 19° SSW 11:38:41 19° SSW
STARLINK-1099 3.8 11:35:44 10° NW 11:39:49 63° SW 11:41:11 38° SSE
STARLINK-1350 3.4 11:37:38 10° SW 11:41:38 88° SE 11:45:39 10° NE
Cosmos 1733 3.6 11:38:35 10° N 11:42:13 42° E 11:42:40 40° ESE
MetOp-B 4.1 11:40:31 27° SSE 11:43:31 85° ENE 11:48:54 10° NNW
STARLINK-1104 3.9 11:40:44 10° NW 11:44:47 56° SW 11:45:58 39° S
STARLINK-1352 3.5 11:41:02 10° SW 11:45:01 86° NW 11:49:01 10° NE
Cosmos 1842 3.2 11:45:53 48° SE 11:46:41 61° E 11:50:32 10° NNE
NOSS 3-2 (C) 4.4 11:40:36 10° NNW 11:48:14 56° NE 11:53:01 27° ESE
STARLINK-1144 4.1 11:45:45 10° WNW 11:49:44 49° SW 11:50:45 39° S
Cosmos 2369 Rocket 2.7 11:44:27 10° SSW 11:50:02 60° WNW 11:55:38 10° NNE
Cosmos 2082 Rocket 4.4 11:46:23 10° WNW 11:50:15 19° W 11:54:07 10° SW
STARLINK-1368 3.6 11:46:39 10° SW 11:50:39 76° NW 11:54:40 10° NE
Meteor 1-21 4.4 11:49:27 34° SSE 11:51:38 53° E 11:57:03 10° NNE
NOSS 3-4 (A) 3.3 11:45:49 10° SSW 11:51:42 87° WNW 11:57:52 10° NNE
NOSS 3-4 (C) 3.3 11:45:54 10° SSW 11:51:48 88° WNW 11:57:59 10° NNE
SPOT 5 3.9 11:50:56 30° ESE 11:52:30 36° ENE 11:57:21 10° N
Cosmos 1627 Rocket 4.5 11:49:07 25° S 11:52:55 70° E 11:59:16 10° NNE
Terra 3.2 11:52:40 23° E 11:53:30 24° ENE 11:57:17 10° NNE
STARLINK-1103 4.2 11:50:46 10° WNW 11:54:43 44° SW 11:55:32 38° SSW
STARLINK-1369 3.8 11:51:11 10° SW 11:55:10 69° NW 11:59:10 10° NE
